Date String (YYYY-MM-DD hh:mm:ss) UTC,Instrument flags,Ambient pressure (hPa),Sample flow (lpm),Bypass flow (lpm),Sample temperature (°C),Ambient temperature (°C),ASC tube jacket temperature (°C),LED temperature (°C),Box temperature (°C),Sample RH (%),Span deviation,Mass concentration (μg/m³),Mass concentration (μg/m³),Mass concentration (μg/m³)
DateTimeUTC,F1_M11,P_M11,Q1_M11,Q2_M11,T1_M11,T2_M11,T3_M11,T4_M11,T5_M11,U1_M11,ZSPAN_M11,X2_M11,X0_M11,X1_M11
2022-08-20 06:00:00,,0829.5,5.00,0.00,30.0,28.8,00.0,38.8,31.9,34.1,0000.0,0007.78,0016.00,0006.32
2022-08-20 06:01:00,,0829.5,5.00,0.00,30.1,28.9,00.0,38.8,31.9,34.2,0000.0,0007.78,0016.50,0006.34
2022-08-20 06:02:00,,0829.5,5.00,0.00,30.1,28.9,00.0,38.8,31.9,34.1,0000.0,0007.82,0016.75,0006.35
2022-08-20 06:03:00,,0829.5,5.01,0.00,30.1,29.0,00.0,38.8,31.9,33.8,0000.0,0007.82,0016.64,0006.35
2022-08-20 06:04:00,,0829.6,5.00,0.00,30.1,29.0,00.0,38.9,32.0,33.9,0000.0,0007.83,0016.36,0006.35
2022-08-20 06:05:00,,0829.6,5.00,0.00,30.2,29.0,00.0,38.9,32.0,33.9,0000.0,0007.87,0016.73,0006.35
2022-08-20 06:06:00,,0829.5,5.00,0.00,30.2,29.1,00.0,38.9,32.0,33.9,0000.0,0007.89,0017.07,0006.34
2022-08-20 06:07:00,,0829.6,5.00,0.00,30.2,29.1,00.0,38.9,32.0,33.8,0000.0,0007.82,0016.39,0006.32
2022-08-20 06:08:00,,0829.6,5.00,0.00,30.2,28.9,00.0,38.9,32.0,33.6,0000.0,0007.72,0015.97,0006.29
2022-08-20 06:09:00,,0829.6,5.00,0.00,30.1,28.2,00.0,38.8,31.8,33.5,0000.0,0007.71,0015.31,0006.28
2022-08-20 06:10:00,,0829.6,5.00,0.00,30.1,27.8,00.0,38.8,31.7,33.5,0000.0,0007.68,0014.58,0006.25
2022-08-20 06:11:00,,0829.6,5.01,0.00,30.0,27.7,00.0,38.8,31.6,33.9,0000.0,0007.60,0014.06,0006.23
2022-08-20 06:12:00,,0829.6,5.00,0.00,29.9,27.7,00.0,38.8,31.6,34.1,0000.0,0007.54,0013.46,0006.21
2022-08-20 06:13:00,,0829.6,4.98,0.00,29.9,27.8,00.0,38.8,31.5,34.6,0000.0,0007.53,0013.39,0006.19
2022-08-20 06:14:00,,0829.7,5.01,0.00,29.9,28.0,00.0,38.7,31.6,34.4,0000.0,0007.54,0013.72,0006.19
2022-08-20 06:15:00,,0829.6,5.00,0.00,29.9,28.1,00.0,38.7,31.7,34.4,0000.0,0007.55,0013.77,0006.18
2022-08-20 06:16:00,,0829.6,5.01,0.00,29.9,28.2,00.0,38.7,31.7,34.4,0000.0,0007.48,0013.29,0006.17
2022-08-20 06:17:00,,0829.6,4.99,0.00,29.9,28.3,00.0,38.7,31.7,34.1,0000.0,0007.44,0012.94,0006.17
2022-08-20 06:18:00,,0829.8,5.01,0.00,29.9,28.5,00.0,38.7,31.7,33.9,0000.0,0007.46,0012.98,0006.15
2022-08-20 06:19:00,,0829.6,4.99,0.00,29.9,28.6,00.0,38.7,31.8,34.0,0000.0,0007.52,0013.22,0006.15
2022-08-20 06:20:00,,0829.6,5.00,0.00,29.9,28.6,00.0,38.7,31.8,33.9,0000.0,0007.55,0013.27,0006.13
2022-08-20 06:21:00,,0829.6,5.01,0.00,30.0,28.7,00.0,38.7,31.8,33.7,0000.0,0007.58,0013.84,0006.12
2022-08-20 06:22:00,,0829.5,5.00,0.00,30.0,28.8,00.0,38.7,31.9,33.4,0000.0,0007.58,0014.17,0006.10
2022-08-20 06:23:00,,0829.6,5.00,0.00,30.0,28.9,00.0,38.7,31.9,33.6,0000.0,0007.57,0014.60,0006.09
2022-08-20 06:24:00,,0829.6,5.00,0.00,30.0,28.9,00.0,38.8,31.9,33.7,0000.0,0007.56,0014.49,0006.08
2022-08-20 06:25:00,,0829.6,5.00,0.00,30.0,29.0,00.0,38.8,31.9,33.5,0000.0,0007.57,0014.30,0006.08
2022-08-20 06:26:00,,0829.6,5.00,0.00,30.1,29.0,00.0,38.8,32.0,33.4,0000.0,0007.48,0014.09,0006.07
2022-08-20 06:27:00,,0829.6,5.01,0.00,30.1,29.0,00.0,38.8,32.0,33.2,0000.0,0007.44,0013.94,0006.07
2022-08-20 06:28:00,,0829.5,5.00,0.00,30.1,29.1,00.0,38.8,32.0,32.8,0000.0,0007.43,0013.90,0006.06
2022-08-20 06:29:00,,0829.5,5.00,0.00,30.1,29.1,00.0,38.8,32.0,32.7,0000.0,0007.39,0013.62,0006.07
2022-08-20 06:30:00,,0829.5,4.99,0.00,30.1,29.1,00.0,38.9,32.0,32.6,0000.0,0007.34,0013.49,0006.07
2022-08-20 06:31:00,,0829.5,4.99,0.00,30.2,29.1,00.0,38.9,32.0,32.7,0000.0,0007.33,0013.91,0006.08
2022-08-20 06:32:00,,0829.5,5.01,0.00,30.2,29.1,00.0,38.9,32.0,32.6,0000.0,0007.30,0013.57,0006.07
2022-08-20 06:33:00,,0829.5,4.99,0.00,30.2,29.1,00.0,38.9,32.0,32.2,0000.0,0007.27,0013.20,0006.05
2022-08-20 06:34:00,,0829.5,5.00,0.00,30.2,28.6,00.0,38.9,31.9,32.1,0000.0,0007.25,0012.69,0006.03
2022-08-20 06:35:00,,0829.5,4.99,0.00,30.1,28.0,00.0,38.8,31.8,32.2,0000.0,0007.24,0012.60,0006.01
2022-08-20 06:36:00,,0829.5,4.99,0.00,30.0,27.7,00.0,38.8,31.6,32.3,0000.0,0007.15,0012.35,0005.98
2022-08-20 06:37:00,,0829.5,4.99,0.00,29.9,27.7,00.0,38.8,31.5,32.5,0000.0,0007.17,0012.46,0005.97
2022-08-20 06:38:00,,0829.5,5.01,0.00,29.9,27.8,00.0,38.8,31.6,32.2,0000.0,0007.19,0012.53,0005.96
2022-08-20 06:39:00,,0829.5,5.01,0.00,29.9,27.9,00.0,38.7,31.6,32.3,0000.0,0007.23,0012.72,0005.94
2022-08-20 06:40:00,,0829.6,4.99,0.00,29.8,28.0,00.0,38.7,31.6,32.0,0000.0,0007.19,0012.63,0005.91
2022-08-20 06:41:00,,0829.5,5.00,0.00,29.8,28.1,00.0,38.7,31.6,32.2,0000.0,0007.19,0012.86,0005.90
2022-08-20 06:42:00,,0829.5,5.01,0.00,29.8,28.2,00.0,38.7,31.6,32.0,0000.0,0007.14,0012.41,0005.88
2022-08-20 06:43:00,,0829.6,5.01,0.00,29.8,28.3,00.0,38.7,31.7,31.8,0000.0,0007.11,0012.28,0005.87
2022-08-20 06:44:00,,0829.6,4.99,0.00,29.8,28.4,00.0,38.7,31.7,31.8,0000.0,0007.15,0012.55,0005.87
2022-08-20 06:45:00,,0829.6,4.99,0.00,29.8,28.5,00.0,38.7,31.7,31.7,0000.0,0007.14,0012.64,0005.86
2022-08-20 06:46:00,,0829.6,5.01,0.00,29.9,28.5,00.0,38.7,31.7,31.8,0000.0,0007.11,0013.17,0005.85
2022-08-20 06:47:00,,0829.7,5.00,0.00,29.9,28.6,00.0,38.7,31.7,31.9,0000.0,0007.10,0014.57,0005.85
2022-08-20 06:48:00,,0829.6,4.99,0.00,29.9,28.7,00.0,38.7,31.8,31.7,0000.0,0007.12,0014.55,0005.84
2022-08-20 06:49:00,,0829.6,5.01,0.00,29.9,28.7,00.0,38.7,31.8,31.6,0000.0,0007.12,0014.52,0005.83
2022-08-20 06:50:00,,0829.7,4.99,0.00,29.9,28.8,00.0,38.7,31.8,31.8,0000.0,0007.08,0014.47,0005.83
2022-08-20 06:51:00,,0829.7,5.00,0.00,29.9,28.8,00.0,38.7,31.8,31.7,0000.0,0007.13,0015.07,0005.83
2022-08-20 06:52:00,,0829.7,4.99,0.00,30.0,28.8,00.0,38.7,31.9,31.6,0000.0,0007.17,0015.48,0005.83
2022-08-20 06:53:00,,0829.8,5.00,0.00,30.0,28.9,00.0,38.7,31.9,31.5,0000.0,0007.18,0016.29,0005.84
2022-08-20 06:54:00,,0829.7,5.00,0.00,30.0,28.9,00.0,38.7,31.9,31.4,0000.0,0007.18,0016.62,0005.83
2022-08-20 06:55:00,,0829.8,5.00,0.00,30.0,28.9,00.0,38.8,31.9,31.1,0000.0,0007.12,0016.25,0005.82
2022-08-20 06:56:00,,0829.7,5.02,0.00,30.0,29.0,00.0,38.8,31.9,31.1,0000.0,0007.13,0016.10,0005.84
2022-08-20 06:57:00,,0829.7,4.99,0.00,30.0,29.0,00.0,38.8,31.9,30.8,0000.0,0007.12,0015.45,0005.86
2022-08-20 06:58:00,,0829.7,4.99,0.00,30.1,29.0,00.0,38.8,32.0,31.1,0000.0,0007.08,0014.11,0005.85
2022-08-20 06:59:00,,0829.8,5.00,0.00,30.1,29.1,00.0,38.8,32.0,31.0,0000.0,0007.11,0014.08,0005.85
